This is the latest recevied weather packets stored in our database for station/object DK9XR-14. If no packets are shown the sender has not sent any weather packets the latest 10 day(s).
| Time | Temp. | Humidity | Pressure | Rain* | Wind** | Luminosity | Snow |
|---|---|---|---|---|---|---|---|
| 1777552128 | 13.89° C | 23% | 1026.4 hPa | 0 mm | - | - | - |
| 1777551829 | 13.89° C | 23% | 1026.6 hPa | 0 mm | - | - | - |
| 1777551529 | 13.89° C | 23% | 1026.5 hPa | 0 mm | - | - | - |
| 1777551228 | 13.89° C | 23% | 1026.4 hPa | 0 mm | - | - | - |
| 1777550930 | 13.89° C | 23% | 1026.5 hPa | 0 mm | - | - | - |
| 1777550629 | 13.33° C | 25% | 1026.5 hPa | 0 mm | - | - | - |
| 1777550330 | 13.89° C | 25% | 1026.6 hPa | 0 mm | - | - | - |
| 1777550028 | 13.33° C | 25% | 1026.8 hPa | 0 mm | - | - | - |
| 1777549731 | 13.33° C | 27% | 1026.7 hPa | 0 mm | - | - | - |
| 1777549429 | 13.33° C | 25% | 1026.8 hPa | 0 mm | - | - | - |
| 1777549130 | 13.33° C | 26% | 1026.8 hPa | 0 mm | - | - | - |
| 1777548828 | 12.78° C | 26% | 1026.9 hPa | 0 mm | - | - | - |
| 1777548531 | 12.78° C | 27% | 1026.8 hPa | 0 mm | - | - | - |
| 1777548228 | 13.33° C | 27% | 1026.8 hPa | 0 mm | - | - | - |
| 1777547929 | 13.33° C | 29% | 1026.9 hPa | 0 mm | - | - | - |
| 1777547628 | 13.33° C | 29% | 1027.1 hPa | 0 mm | - | - | - |
| 1777547328 | 12.78° C | 30% | 1027.1 hPa | 0 mm | - | - | - |
| 1777547030 | 12.78° C | 32% | 1027.1 hPa | 0 mm | - | - | - |
| 1777546728 | 12.78° C | 30% | 1027.1 hPa | 0 mm | - | - | - |
| 1777546431 | 12.78° C | 31% | 1027.1 hPa | 0 mm | - | - | - |
| 1777546127 | 12.22° C | 32% | 1027.3 hPa | 0 mm | - | - | - |
| 1777545830 | 12.22° C | 34% | 1027.1 hPa | 0 mm | - | - | - |
| 1777545529 | 12.22° C | 32% | 1027.3 hPa | 0 mm | - | - | - |
| 1777545231 | 11.67° C | 32% | 1027.3 hPa | 0 mm | - | - | - |
| 1777544930 | 11.67° C | 33% | 1027.3 hPa | 0 mm | - | - | - |
* Rain latest hour (hover to see other rain measurements)
** Current wind speed in m/s (hover to see current wind gust speed)